Lapse_Rate
4.7 4.6 4.6 4.7 4.8 4.9 5.0 5.0 5.1 5.2 5.3 5.4 5.5 5.5 5.5 5.5 5.5 5.5 5.5 5.6 5.7 5.7 5.9 6.1 6.2 6.2 6.1 6.1 5.9 6.2 6.2 6.3 6.3 6.6 6.8 6.7 7.0 7.4 8.0 7.7 8.0 8.4 8.8 8.6 8.5 8.4 8.5
4.7 4.7 4.6 4.7 4.8 4.9 5.0 5.0 5.1 5.2 5.3 5.4 5.5 5.6 5.6 5.6 5.5 5.4 5.4 5.4 5.6 5.7 5.7 5.9 6.0 6.1 6.1 6.2 6.0 6.4 6.4 6.2 6.2 6.4 6.7 6.8 7.2 7.6 7.8 7.9 7.9 8.7 8.5 8.7 9.0 9.1 9.3
4.7 4.7 4.7 4.7 4.9 5.0 5.0 5.1 5.2 5.2 5.3 5.4 5.5 5.6 5.6 5.7 5.8 5.6 5.5 5.4 5.5 5.6 5.7 5.7 5.9 6.0 6.1 6.0 6.3 6.6 6.6 6.3 6.2 6.3 6.6 6.9 7.2 7.4 8.7 8.6 8.2 8.4 8.4 9.3 9.3 9.3 8.8
4.7 4.8 4.9 4.9 5.0 5.1 5.1 5.2 5.2 5.3 5.3 5.3 5.4 5.5 5.7 5.8 5.9 5.8 5.6 5.5 5.4 5.5 5.6 5.7 5.7 5.8 5.9 6.3 6.6 6.7 6.8 6.6 6.5 6.5 6.7 6.9 7.1 7.4 7.9 8.7 8.4 8.5 9.1 9.3 8.5 8.7 8.9
4.9 5.0 5.0 5.0 5.1 5.2 5.3 5.2 5.3 5.3 5.3 5.3 5.4 5.5 5.7 5.8 5.8 5.8 5.7 5.6 5.6 5.6 5.7 5.7 5.8 5.9 5.6 6.6 6.7 6.7 6.9 6.8 6.6 6.7 6.8 7.1 7.1 7.6 8.4 8.3 9.4 9.4 9.4 9.2 8.6 9.0 9.2
5.0 5.1 5.2 5.2 5.2 5.3 5.3 5.3 5.4 5.4 5.4 5.4 5.3 5.4 5.6 5.7 5.8 5.7 5.7 5.7 5.6 5.7 5.7 5.7 5.7 6.0 6.2 6.1 6.3 7.0 7.0 7.0 6.6 6.7 6.8 7.0 7.3 7.6 8.2 9.4 9.5 9.4 9.5 8.9 9.2 8.8 8.7
5.3 5.3 5.3 5.3 5.4 5.4 5.5 5.4 5.5 5.5 5.5 5.5 5.5 5.5 5.6 5.8 5.8 5.8 5.7 5.7 5.7 5.8 6.0 5.8 5.5 5.5 5.8 6.5 6.9 7.0 7.1 7.1 6.8 6.9 7.1 7.4 7.4 7.6 8.9 9.5 9.5 9.2 9.4 9.4 9.5 9.3 8.9
5.3 5.4 5.4 5.5 5.5 5.6 5.6 5.6 5.6 5.7 5.6 5.5 5.5 5.6 5.7 5.9 5.9 5.8 5.8 5.7 5.9 6.0 5.9 6.1 6.1 6.0 6.3 6.7 6.2 6.3 6.8 6.8 6.9 7.2 7.5 7.8 7.8 8.3 9.4 9.6 9.6 9.6 9.5 9.6 9.6 9.4 9.3
5.4 5.5 5.6 5.7 5.7 5.7 5.7 5.7 5.7 5.8 5.7 5.7 5.6 5.7 5.7 5.9 5.9 5.8 5.8 5.9 6.0 6.1 6.3 6.0 6.1 6.1 6.1 6.5 6.4 6.6 6.8 7.0 7.2 7.5 7.8 8.1 8.8 8.5 8.6 9.5 9.6 9.5 9.6 9.5 9.6 9.5 9.2
5.7 5.7 5.8 5.8 5.9 5.9 5.9 5.9 5.9 6.0 5.9 5.8 5.8 5.8 5.8 5.9 5.9 5.8 5.8 6.1 6.2 6.3 6.3 6.5 6.4 6.0 6.4 6.5 6.3 6.6 6.7 7.1 7.6 7.7 7.9 8.2 8.4 8.5 8.5 8.9 9.4 9.5 9.6 9.6 9.5 9.5 9.6
5.7 5.7 5.8 5.9 6.0 5.9 5.9 5.9 6.0 6.1 6.0 5.9 5.8 5.9 5.9 5.9 5.8 5.8 6.1 6.2 6.3 6.4 8.3 6.6 6.2 6.5 6.2 6.5 6.6 6.8 6.7 7.1 7.5 7.9 8.1 8.2 8.3 8.3 8.2 8.5 8.4 9.5 9.6 9.5 9.6 9.5 9.5
5.7 5.8 5.8 5.9 5.9 5.9 5.9 5.9 5.9 6.0 6.0 6.0 6.0 6.0 6.0 6.0 5.9 6.0 6.2 6.3 6.4 6.3 8.5 6.8 6.5 6.5 6.4 6.5 6.9 7.0 6.8 7.0 7.4 7.8 8.0 8.2 8.5 8.3 8.4 8.5 8.5 9.5 9.6 9.6 9.6 9.6 9.7
5.9 6.0 6.0 6.0 6.1 6.1 6.1 6.0 6.1 6.1 6.1 6.3 6.3 6.2 6.1 6.1 6.0 6.1 6.2 6.3 6.3 7.7 7.5 7.1 7.1 6.9 7.3 7.5 7.2 7.1 6.9 6.9 7.5 7.8 8.1 8.1 8.2 7.9 7.9 8.4 8.7 9.3 9.6 9.7 9.8 9.8 9.8
6.2 6.2 6.2 6.2 6.3 6.2 6.2 6.2 6.1 6.2 6.3 6.4 6.3 6.3 6.2 6.1 6.1 6.2 6.3 5.6 7.2 7.8 7.7 6.8 7.0 7.3 7.5 7.8 7.7 7.6 7.6 7.5 7.6 8.1 9.0 8.8 9.0 8.3 8.0 8.2 8.8 8.8 9.4 9.7 9.5 9.7 9.9
6.2 6.2 6.2 6.1 6.1 6.2 6.3 6.3 6.2 6.2 6.4 6.4 6.4 6.3 6.3 6.2 6.2 6.3 6.2 6.7 8.4 7.5 6.7 7.1 7.4 7.8 8.1 8.0 8.0 7.9 7.9 8.1 8.2 8.1 8.6 9.6 9.6 9.6 8.6 8.3 8.6 9.0 8.9 9.5 9.6 9.6 9.7
6.2 6.2 6.2 6.3 6.3 6.4 6.4 6.5 6.5 6.5 6.5 6.6 6.4 6.4 6.3 6.3 6.3 6.2 5.8 7.1 6.9 6.5 6.3 6.8 7.8 7.8 9.2 8.7 7.9 8.3 8.4 8.3 8.4 8.5 8.3 9.0 9.6 9.6 9.5 8.4 8.5 8.6 9.5 9.6 9.6 9.7 9.6
6.1 6.1 6.2 6.3 6.4 6.5 6.6 6.7 6.8 6.7 6.6 6.5 6.5 5.8 6.2 6.4 6.3 6.1 6.8 7.5 6.7 6.6 6.4 6.9 7.6 7.7 8.1 8.5 8.1 9.3 8.6 9.2 8.3 8.7 8.5 8.5 9.5 9.6 9.7 8.5 8.5 8.6 8.7 9.6 9.6 9.6 9.9
6.2 6.2 6.2 6.3 6.4 6.5 6.6 6.8 6.9 6.8 6.6 6.4 6.4 6.5 6.2 6.2 5.9 6.6 7.1 7.0 6.3 6.6 6.6 6.6 6.9 7.2 7.6 8.1 8.0 8.5 9.4 9.3 9.3 8.6 9.0 8.4 9.3 9.6 9.6 9.6 8.8 8.7 9.4 9.5 9.6 9.7 9.6
6.2 6.3 6.3 6.4 6.4 6.5 6.6 6.7 6.8 6.9 6.8 6.6 6.1 6.2 6.3 6.3 6.7 7.3 7.1 6.6 6.4 6.7 6.8 6.9 7.0 7.2 7.6 7.8 8.0 8.4 9.5 9.4 7.9 8.3 8.8 9.2 8.8 9.6 9.7 9.6 9.5 8.9 8.8 9.3 9.5 9.6 9.6
6.3 6.3 6.3 6.4 6.5 6.6 6.6 6.7 6.8 6.8 6.8 6.6 6.3 6.8 6.2 6.6 6.3 6.6 7.1 7.0 7.0 6.7 6.6 6.8 7.0 7.2 7.4 7.7 7.9 8.6 9.4 9.1 7.9 8.1 8.3 8.5 9.3 9.6 9.7 9.6 9.6 9.5 9.2 9.6 9.6 9.7 9.6
6.3 6.3 6.4 6.5 6.6 6.6 6.7 6.7 6.7 6.7 6.8 6.6 5.8 6.5 6.5 7.3 7.2 7.0 7.0 6.9 6.9 7.0 6.9 6.8 6.8 7.0 7.5 8.0 8.3 9.3 8.7 9.1 8.4 8.2 8.2 8.4 8.8 9.6 9.6 9.6 9.6 9.7 9.7 9.2 9.6 9.6 9.6
6.3 6.3 6.4 6.4 6.5 6.5 6.6 6.6 6.6 6.6 6.6 6.6 6.2 5.9 6.1 6.4 6.8 6.6 6.9 6.8 7.0 7.1 7.0 7.2 7.2 7.6 7.6 7.9 8.5 7.9 8.4 8.4 8.0 7.7 9.2 8.8 9.0 9.4 9.6 9.6 9.6 9.6 9.7 9.6 9.6 9.6 9.6
6.3 6.4 6.4 6.3 6.3 6.3 6.4 6.4 6.4 6.4 6.4 6.4 6.4 6.4 6.4 6.3 6.7 6.9 7.1 7.1 6.9 7.0 6.9 6.9 6.9 7.4 7.6 7.9 7.8 7.6 7.5 7.3 6.6 8.4 9.2 8.9 9.4 9.5 9.6 9.6 9.6 9.7 9.6 9.7 9.6 9.6 9.6
6.2 6.2 6.3 6.3 6.3 6.3 6.3 6.4 6.5 6.4 6.2 6.2 6.2 6.2 6.2 6.3 6.9 6.9 6.6 6.5 6.6 6.7 6.7 6.9 6.8 6.9 7.1 7.0 6.9 7.3 7.7 7.9 7.8 8.2 8.5 9.1 9.1 9.1 9.4 9.6 9.8 9.6 9.6 9.6 9.6 9.7 9.6
6.0 6.1 6.1 6.2 6.2 6.4 6.5 6.5 6.5 6.4 6.3 6.3 6.2 6.1 6.1 6.0 6.4 6.5 6.4 6.4 6.4 6.3 6.3 6.2 6.4 6.7 6.7 7.0 7.3 7.7 8.0 9.2 9.2 9.0 8.8 8.7 8.8 9.2 9.3 9.5 9.6 9.6 9.6 9.7 9.7 9.6 9.7
5.8 5.9 6.1 6.3 6.4 6.6 6.8 6.7 6.6 6.5 6.4 6.4 6.3 6.2 6.2 6.2 6.5 5.8 5.9 6.0 6.2 6.6 6.8 6.8 6.6 6.7 7.0 7.4 7.9 8.0 9.3 9.3 8.3 8.6 9.3 8.9 8.3 8.1 8.5 9.4 9.7 9.6 9.6 9.6 9.7 9.7 9.7
5.7 5.8 6.0 6.2 6.4 6.5 6.6 6.6 6.6 6.5 6.5 6.5 6.4 6.4 6.4 6.4 6.6 6.1 5.9 6.0 6.2 6.2 6.6 6.9 6.8 7.1 6.9 7.4 7.7 9.2 9.1 8.9 7.7 5.7 8.9 8.7 9.2 8.0 9.3 9.3 9.3 9.6 9.7 9.7 9.6 9.5 9.7
5.8 5.9 6.0 6.2 6.3 6.3 6.4 6.5 6.6 6.5 6.4 6.5 6.6 6.5 6.5 6.7 6.7 6.5 6.7 6.7 6.4 5.9 6.1 6.6 6.5 6.7 7.3 7.3 7.7 9.2 9.2 8.4 6.2 7.3 9.3 8.8 7.9 7.6 9.0 9.4 9.5 9.6 9.2 9.5 9.5 9.4 9.6
5.9 5.9 5.9 6.1 6.2 6.3 6.4 6.4 6.5 6.6 6.6 6.5 6.6 6.8 6.7 6.8 6.8 6.6 6.7 6.8 6.7 6.4 5.7 6.1 6.6 6.7 7.4 7.4 7.8 9.0 8.6 7.4 6.4 6.4 9.3 9.1 7.5 6.3 6.0 7.3 8.3 8.9 8.6 8.6 8.6 8.2 8.3
Wind_Speed
11 14 15 14 15 14 14 14 14 15 15 15 16 17 17 17 18 18 19 21 22 22 21 19 19 17 10 9 8 10 7 5 12 15 17 14 13 12 10 1 6 11 6 4 3 2 6
10 14 14 14 14 14 14 15 15 15 15 16 16 17 17 18 18 19 20 21 22 23 22 21 18 15 8 14 5 5 3 6 10 15 17 16 13 8 10 3 9 5 5 6 5 6 6
11 12 13 13 13 13 15 15 16 16 16 17 17 18 18 18 20 21 22 23 25 24 21 18 13 7 10 11 2 6 6 9 8 15 15 14 9 12 9 7 4 4 10 12 12 7 0
13 11 11 13 14 14 13 16 17 17 18 18 19 19 20 20 20 22 23 25 25 22 16 12 8 10 7 3 5 8 10 9 9 10 11 3 9 13 11 3 11 12 16 13 11 6 7
12 12 13 13 13 14 15 15 16 17 18 19 19 20 22 21 21 24 26 26 23 13 9 7 8 9 11 4 11 13 14 13 13 11 8 6 12 15 16 11 15 12 14 3 10 11 6
12 12 13 14 13 14 14 15 16 16 17 19 19 20 22 22 24 25 29 26 6 6 7 8 8 7 7 11 11 7 12 14 13 13 12 12 10 15 14 15 14 9 14 16 7 3 8
12 13 14 14 14 14 15 13 16 15 17 17 19 20 21 24 26 25 18 5 5 7 12 10 3 6 3 3 5 12 12 14 15 15 17 19 17 19 21 19 18 6 12 4 6 1 4
12 12 13 13 14 15 15 15 16 16 17 17 18 19 22 25 27 27 10 7 7 6 10 17 12 10 4 3 9 12 14 17 17 19 20 19 20 20 20 20 16 9 11 11 11 3 9
12 12 13 14 13 14 15 16 17 17 17 17 19 19 22 26 29 11 7 6 4 8 7 12 11 13 12 12 11 17 16 21 21 21 21 21 19 18 19 20 20 11 17 13 11 1 13
13 13 15 15 15 15 13 18 17 17 17 18 19 19 20 29 10 3 4 3 6 4 6 14 11 8 9 10 13 13 17 19 15 21 23 21 20 10 15 19 15 19 15 16 4 9 11
14 14 16 16 15 15 15 17 17 18 18 19 19 19 18 12 12 4 6 4 6 4 6 10 10 7 6 13 8 17 13 17 20 18 17 21 19 17 17 15 19 19 16 8 9 13 15
13 14 14 15 16 16 17 18 18 18 19 20 20 19 20 6 6 8 4 6 5 6 3 8 8 11 13 17 11 10 15 15 14 18 18 20 16 15 16 17 20 18 17 9 8 13 14
14 15 15 16 16 17 17 18 18 18 20 21 22 20 9 10 3 1 5 6 7 9 3 8 10 10 15 12 18 13 17 18 16 16 18 17 23 12 16 20 19 19 15 12 12 13 14
14 14 14 15 16 17 18 18 19 21 22 23 25 20 11 8 4 5 6 9 9 5 1 4 3 6 11 12 14 16 16 18 21 19 14 16 18 23 17 23 21 19 20 14 14 14 16
14 14 15 16 16 18 18 19 20 22 22 25 30 6 7 5 7 5 7 10 6 3 6 5 6 12 12 9 7 16 19 18 20 21 19 14 18 15 22 17 20 21 19 21 23 21 14
14 15 16 16 17 18 18 19 21 22 24 24 5 6 4 4 6 7 8 13 4 3 6 9 12 3 8 14 11 12 16 15 18 19 16 19 12 12 14 16 21 22 16 18 15 23 20
16 16 16 16 18 18 18 20 21 24 27 17 6 5 6 7 5 7 10 1 2 5 6 8 9 6 11 5 10 14 10 12 7 17 16 17 14 13 15 19 21 15 20 14 18 19 16
15 15 15 16 18 18 19 20 22 25 34 5 6 4 7 5 7 8 9 0 4 10 8 9 7 12 9 7 10 13 11 8 8 12 16 17 13 15 15 15 16 24 21 19 14 19 14
17 17 17 17 18 19 20 21 22 23 22 6 4 3 5 6 7 7 5 8 6 10 9 8 10 10 8 12 8 13 8 0 3 11 12 14 13 15 16 20 19 21 24 22 25 19 21
16 16 17 18 18 19 20 20 22 22 20 5 5 5 6 7 12 10 8 8 8 9 11 10 10 11 11 13 13 8 9 10 9 13 8 10 15 18 16 18 16 22 21 21 23 18 18
16 16 16 17 19 19 20 21 22 24 21 4 5 2 6 3 8 9 8 8 9 7 10 7 11 15 16 14 15 16 15 14 13 8 10 16 18 18 19 23 22 19 20 24 25 25 23
18 18 17 17 18 19 20 21 22 26 31 4 5 4 3 9 10 8 8 10 12 11 11 11 12 14 15 16 17 10 15 7 10 22 11 17 15 16 19 22 20 22 17 25 27 25 25
17 17 16 17 18 19 20 21 22 26 24 4 5 5 5 7 10 8 8 9 9 7 10 13 15 10 7 9 12 13 6 4 30 8 10 5 10 13 18 19 20 23 22 18 18 25 21
16 17 17 17 17 16 18 18 18 19 19 7 5 6 6 10 8 7 9 10 12 12 13 14 7 10 11 13 13 17 21 20 19 18 11 15 9 11 13 18 23 17 22 23 23 19 17
17 17 17 17 16 16 16 17 16 15 16 8 4 4 5 8 11 11 12 11 13 13 16 18 18 14 13 14 14 18 16 20 19 19 19 16 13 15 12 16 17 21 23 20 18 22 18
17 17 16 17 16 15 14 14 14 14 14 8 4 3 5 6 3 9 11 10 11 11 12 14 17 14 15 10 14 20 18 9 6 18 21 22 10 6 22 18 21 20 16 12 14 15 21
17 17 17 17 17 15 14 12 11 12 11 8 5 2 5 8 13 8 9 9 8 7 9 9 4 13 11 12 15 16 17 5 6 13 15 16 15 22 14 17 15 18 13 21 19 14 18
18 17 16 16 17 15 13 11 9 9 9 7 5 1 6 6 16 21 18 17 11 11 11 1 5 10 10 14 15 16 15 3 8 28 11 14 4 1 17 17 18 11 13 12 2 2 10
18 18 17 16 16 16 14 12 9 8 7 7 5 3 4 6 10 21 21 23 22 19 13 13 14 11 3 9 10 10 5 6 8 8 14 12 7 5 4 12 35 5 4 8 5 8 8
Wind_Direction
6 12 358 352 352 353 354 350 346 346 345 344 341 338 337 335 333 331 328 325 321 317 316 314 313 316 297 227 256 127 175 171 183 207 230 237 240 243 256 237 262 230 157 231 192 231 231
8 8 356 351 351 350 349 348 343 345 341 340 336 335 333 333 331 328 324 320 316 312 313 310 305 307 248 247 80 143 198 197 207 208 227 241 252 295 309 274 269 9 285 248 187 212 236
10 8 353 344 345 347 347 344 344 341 339 337 334 333 332 331 330 326 322 316 312 308 305 298 290 272 265 242 355 208 229 227 190 215 236 232 271 268 250 220 260 273 256 219 194 168 296
2 357 352 345 347 344 345 344 342 339 338 334 333 331 330 330 326 323 318 311 306 301 293 277 243 244 256 84 261 228 230 222 211 226 263 277 262 271 282 284 256 243 223 253 8 185 142
358 355 348 345 344 345 346 344 339 336 334 331 331 329 328 327 326 324 317 310 301 286 266 220 222 231 250 125 216 215 215 224 200 214 222 276 249 248 238 237 237 207 243 195 187 227 269
353 352 348 349 349 345 343 342 334 334 332 330 329 327 326 329 327 324 317 301 308 243 225 218 267 256 245 221 173 205 210 232 216 213 218 225 233 240 235 232 233 242 228 184 233 159 213
352 349 347 348 344 340 337 336 333 332 330 327 324 325 328 326 322 319 319 210 207 197 213 243 208 251 120 177 198 214 198 207 221 222 220 212 231 232 232 227 269 239 287 318 186 72 278
350 347 345 342 339 337 335 338 332 331 326 325 325 324 327 323 319 314 289 265 39 345 291 208 241 259 245 278 215 216 184 201 206 217 221 228 224 235 243 253 239 252 258 247 252 210 253
351 348 340 334 332 335 332 334 328 330 328 328 325 325 324 322 316 294 273 16 336 328 255 180 215 226 212 208 233 192 197 206 206 221 220 231 223 216 247 235 244 234 240 240 257 201 271
348 343 334 334 336 337 328 334 328 328 327 325 325 326 327 324 299 348 223 103 305 303 265 154 197 191 188 227 227 237 193 211 225 227 226 236 247 234 234 241 231 242 217 264 327 266 263
344 341 341 346 347 339 342 334 333 328 326 325 324 323 321 320 316 242 44 296 309 237 254 152 136 104 166 206 94 194 195 217 228 220 235 230 230 228 238 237 232 240 248 219 234 256 273
346 343 340 340 341 343 338 334 329 328 326 325 322 319 319 230 219 281 296 297 241 229 231 146 147 191 189 212 230 145 196 234 239 247 232 249 231 238 234 238 233 241 243 237 266 245 251
349 349 347 342 339 337 337 331 331 329 327 322 314 306 279 306 15 354 283 233 228 250 140 150 189 184 212 182 217 186 201 203 218 222 225 217 245 216 253 240 239 234 238 239 228 228 242
348 345 340 334 340 342 335 335 335 333 329 321 312 311 196 254 293 266 242 232 252 27 258 58 238 221 237 214 206 207 203 215 220 228 238 216 216 221 215 235 233 213 237 233 228 237 238
348 344 340 343 343 338 338 338 338 336 329 320 313 204 223 156 215 243 249 232 263 84 19 279 251 242 201 229 270 205 221 219 222 221 241 262 225 224 211 217 237 236 219 245 257 258 264
348 347 350 346 342 339 342 341 341 333 326 327 283 227 116 145 192 233 248 268 359 317 286 256 264 213 257 188 199 221 211 223 240 228 225 261 272 246 187 232 228 241 240 219 242 255 260
353 350 347 345 343 343 343 342 338 333 329 332 242 228 120 154 217 229 251 274 333 226 258 259 263 276 257 296 239 232 239 217 245 239 208 241 257 243 219 208 229 214 240 244 247 233 256
351 348 346 346 344 344 344 342 340 341 337 296 278 246 141 193 227 230 265 166 20 271 207 252 271 285 292 295 247 245 247 251 195 245 205 230 249 234 242 230 231 248 222 231 227 234 237
355 353 351 349 347 346 344 343 344 347 356 315 258 80 162 230 262 224 181 258 236 267 236 239 235 236 248 264 252 261 234 348 346 263 251 216 227 255 250 239 215 218 233 223 247 237 234
357 356 352 349 346 346 345 342 342 343 348 302 277 212 153 213 270 281 301 267 262 187 273 275 265 250 253 241 249 274 219 208 199 253 1 275 252 238 247 240 229 215 241 243 235 239 236
359 356 354 351 348 348 346 345 341 339 339 290 239 30 353 240 219 235 261 293 291 270 211 255 234 245 249 244 248 219 241 266 195 167 235 230 244 248 251 268 268 253 207 225 243 243 247
360 358 355 353 350 348 347 347 346 342 335 252 312 337 359 266 278 265 253 261 261 271 248 261 216 276 217 254 256 326 324 350 358 345 215 215 242 265 256 252 256 263 260 213 224 232 246
357 356 355 353 353 350 350 349 353 354 339 317 11 263 273 288 269 243 268 283 264 294 280 269 279 271 250 270 310 312 312 283 262 202 301 313 263 242 254 248 248 246 249 247 243 227 230
356 353 357 355 353 352 348 347 355 2 358 315 12 296 277 278 283 283 303 287 288 280 277 282 223 249 275 311 302 279 261 255 261 265 253 271 256 254 258 259 247 246 237 233 247 253 236
353 353 353 356 353 351 349 348 350 356 351 311 340 307 301 284 298 293 271 274 269 264 254 255 266 277 272 266 269 257 255 244 238 239 242 249 265 268 252 236 252 246 236 231 220 237 232
348 349 350 351 353 349 347 347 345 347 347 309 328 325 279 302 105 355 308 286 282 286 279 239 235 243 252 263 244 244 247 256 323 332 222 229 109 25 274 256 245 240 225 222 260 232 226
342 345 346 347 348 347 346 344 342 341 345 316 305 329 275 281 272 294 273 310 325 289 283 299 252 218 225 248 251 251 252 131 124 245 208 216 218 210 230 245 247 252 253 200 206 229 219
335 338 340 341 344 344 340 338 335 332 335 312 315 326 298 282 288 283 280 269 268 247 262 43 270 237 256 226 254 263 263 350 156 249 238 227 196 308 256 221 242 224 133 201 198 306 211
330 332 333 335 337 339 334 326 323 317 320 310 280 88 322 259 286 313 287 272 266 267 286 288 268 305 266 252 270 279 335 10 5 279 258 230 155 124 75 316 302 319 58 77 104 102 93